Weather observations for the past three days for
Friday Harbor Airport
Metric (Imperial)
Date Time (pdt) Wind (kph) Vis. (km) Weather Sky Cond. Temperature (ºC) Relative Humidity Wind Chill (°C) Heat Index (°C) Pressure Precipitation (cm)
Air Dwpt 6 hour altimeter (cm) sea level (mb) 1 hr 3 hr 6 hr
Max. Min.
21 10:53 SE 6 16.09 Fair CLR 22.8 12.2 22.8 10 51% 76.12 1014.7
21 09:53 SE 6 16.09 Fair CLR 20 11.7 59% 76.15 1015.0
21 08:53 Calm 16.09 Fair CLR 16.7 10.6 67% 76.15 1015.2
21 07:53 Calm 16.09 Fair CLR 16.7 11.1 70% 76.15 1015.1
21 06:53 Calm 16.09 Fair CLR 15.6 11.1 75% 76.15 1015.2
21 05:53 Calm 16.09 Fair CLR 11.1 8.9 86% 76.12 1014.9
21 04:53 Calm 16.09 Fair CLR 10.6 7.8 14.4 9.4 83% 76.12 1014.8
21 03:53 Calm 16.09 Fair CLR 10.6 7.8 83% 76.12 1014.8
21 02:53 Calm 16.09 Fair CLR 11.7 8.3 80% 76.12 1014.8
21 01:53 Calm 16.09 Fair CLR 11.1 8.3 83% 76.12 1014.9
21 00:53 Calm 16.09 Fair CLR 11.7 8.3 80% 76.12 1014.7
20 23:53 Calm 16.09 Fair CLR 12.2 8.3 77% 76.12 1014.9
20 22:53 Calm 16.09 Fair CLR 14.4 8.9 27.8 13.3 70% 76.12 1014.9
20 21:53 Calm 16.09 Fair CLR 15 8.9 67% 76.12 1014.8
20 20:53 Calm 16.09 Fair CLR 17.2 9.4 60% 76.12 1014.7
20 19:53 Calm 16.09 Fair CLR 22.8 11.7 50% 76.1 1014.5
20 18:53 SW 7 16.09 Fair CLR 25 10 39% 26 76.1 1014.6
20 17:53 Vrbl 6 16.09 Fair CLR 27.2 6.7 27% 26 76.12 1014.8
20 16:53 Calm 16.09 Fair CLR 27.8 8.3 27.8 22.2 29% 27 76.17 1015.3
20 15:53 N 13 16.09 Fair CLR 27.2 8.3 30% 27 76.2 1015.6
20 14:53 N 15 16.09 Fair CLR 26.1 9.4 35% 26 76.23 1016.0
20 13:53 N 17 16.09 Fair CLR 25.6 9.4 36% 26 76.25 1016.3
20 12:53 N 13 16.09 Fair CLR 25 11.1 42% 26 76.28 1016.8
20 11:53 N 19 16.09 Fair CLR 23.3 11.1 46% 76.3 1017.2
20 10:53 N 15 16.09 Fair CLR 22.2 11.1 22.2 8.9 50% 76.33 1017.4
20 09:53 Vrbl 11 16.09 Fair CLR 21.1 11.1 53% 76.33 1017.3
20 08:53 N 15 16.09 Fair CLR 20 11.7 59% 76.33 1017.4
20 07:53 N 11 16.09 Fair CLR 18.3 11.1 63% 76.3 1017.0
20 06:53 Calm 16.09 Fair CLR 13.3 10 81% 76.3 1017.0
20 05:53 Calm 16.09 Fair CLR 10 7.8 86% 76.28 1016.8
20 04:53 Calm 16.09 Fair CLR 8.9 6.7 14.4 8.9 86% 76.23 1016.4
20 03:53 Calm 16.09 Fair CLR 9.4 7.2 86% 76.2 1016.0
20 02:53 W 6 16.09 Fair CLR 10.6 7.8 83% 76.2 1015.8
20 01:53 Calm 16.09 Fair CLR 10 7.2 83% 76.2 1016.0
20 00:53 Calm 16.09 Fair CLR 11.1 7.8 80% 76.2 1015.8
19 23:53 Calm 16.09 Fair CLR 11.7 8.3 80% 76.2 1015.8
19 22:53 W 9 16.09 Fair CLR 13.9 8.9 24.4 12.8 72% 76.2 1015.7
19 21:53 Calm 16.09 Fair CLR 13.3 7.8 70% 76.17 1015.6
19 20:53 W 7 16.09 Fair CLR 16.7 9.4 62% 76.15 1015.1
19 19:53 Calm 16.09 Fair CLR 20.6 10.6 53% 76.12 1014.8
19 18:53 Vrbl 7 16.09 Fair CLR 22.8 7.8 38% 76.12 1014.8
19 17:53 N 13 16.09 Fair CLR 23.3 8.9 40% 76.15 1015.2
19 16:53 Vrbl 6 16.09 Fair CLR 23.9 8.3 23.9 20 37% 25 76.17 1015.5
19 15:53 N 15 16.09 Fair CLR 23.9 10.6 43% 25 76.2 1015.8
19 14:53 N 11 16.09 Fair CLR 23.3 10 43% 76.23 1016.1
19 13:53 N 17 16.09 Fair CLR 22.8 10 44% 76.25 1016.6
19 12:53 N 15 16.09 Fair CLR 22.2 10 46% 76.28 1017.0
19 11:53 NE 19 16.09 Fair CLR 21.1 10 49% 76.3 1017.1
19 10:53 N 15 16.09 Fair CLR 20.6 9.4 20.6 7.2 49% 76.3 1017.3
19 09:53 SE 7 16.09 Fair CLR 17.2 10 63% 76.33 1017.6
19 08:53 SE 6 16.09 Fair CLR 16.1 10 67% 76.33 1017.7
19 07:53 Calm 16.09 Fair CLR 13.9 10 78% 76.33 1017.5
19 06:53 Calm 16.09 Fair CLR 12.8 10.6 87% 76.3 1017.3
19 05:53 Calm 16.09 Fair CLR 8.9 7.8 93% 76.28 1017.1
19 04:53 Calm 16.09 Fair CLR 8.9 6.7 12.8 7.8 86% 76.25 1016.7
19 02:53 Calm 16.09 Fair CLR 8.3 6.1 86% 76.25 1016.5
19 01:53 Calm 16.09 Fair CLR 9.4 6.7 83% 76.23 1016.4
19 00:53 Calm 16.09 Fair CLR 9.4 6.7 83% 76.25 1016.6
18 23:53 Calm 16.09 Fair CLR 10 7.2 83% 76.28 1017.0
18 22:53 Calm 16.09 Fair CLR 11.1 7.2 18.9 11.1 77% 76.28 1017.0
18 21:53 SW 6 16.09 Fair CLR 12.8 7.2 69% 76.25 1016.7
18 20:53 Calm 16.09 Fair CLR 13.9 7.2 64% 76.25 1016.6
18 19:53 SW 7 16.09 Fair CLR 16.1 7.2 56% 76.25 1016.5
18 18:53 SW 9 16.09 Fair CLR 17.2 6.7 50% 76.25 1016.5
18 17:53 S 13 16.09 Fair CLR 17.8 7.8 52% 76.25 1016.6
18 16:53 S 11 16.09 Fair CLR 18.9 8.9 20 15.6 52% 76.28 1016.9
18 15:53 S 11 16.09 Fair CLR 19.4 7.8 47% 76.33 1017.4
18 14:53 Vrbl 11 16.09 Fair CLR 19.4 7.8 47% 76.35 1017.9
18 13:53 W 15 16.09 Fair CLR 18.9 7.8 49% 76.38 1018.3
18 12:53 SW 11 16.09 Fair CLR 17.8 8.9 56% 76.4 1018.6
18 11:53 Vrbl 7 16.09 Partly Cloudy SCT025 18.3 10.6 61% 76.4 1018.8
Date Time (pdt) Wind (kph) Vis. (km) Weather Sky Cond. Air Dwpt Max. Min. Relative Humidity Wind Chill (°C) Heat Index (°C) altimeter (cm) sea level (mb) 1 hr 3 hr 6 hr
6 hour
Temperature (ºC) Pressure Precipitation (cm)